STARLINK-11204, 60931

Orbit data source: Space-Track

STARLINK-11204, 60931 is a payload satellite owned by SpaceX/Seattle (US) in LEO that was launched on Sat, 31 Aug 2024 UTC via an FALCON 9 launch vehicle from the Air Force Western Test Range (AFWTR). Payload-class satellites include a variety of spacecraft equipped with specific instruments for various scientific and technological missions. These include communications satellites like Starlink; space stations such as the ISS; scientific satellites like the Hubble; Earth observation satellites from companies like Planet Labs, Umbra, and HawkEye 360; GPS; miniature CubeSats for education and research; and military/defense satellites.

Loading next visibility...
Identifier
60931, 2024-155H
Orbit
LEO
Country
Flag of USUS
Related business
Manufacturer
SpaceX/Seattle
Mission
Operational Commercial Communications
Bus & Motor
STARLINK V2MD, Unknown motor
Mass
960 kg wet, ~910 kg dry
Launch date (UTC)
2024-08-31 (2 years ago)
Launch vehicle
FALCON 9
Launch site
Air Force Western Test Range (AFWTR)
Object type
Payload
Rocket body
Debris
Shape & HBR
Box + 2 Pan, 18.1 m
Radar Cross Section
36.964 m², Large (>1 m²)

Expand to show TLE details & history
Last TLE update: 13 hours ago

TLE from 13 hours ago
0 STARLINK-11204
1 60931U 24155H   26171.31967671  .00000789  00000-0  11367-4 0  9999
2 60931  53.1597 195.1705 0001124  91.5081 268.6066 15.69713094104522
Epoch: 2026-06-20T07:40Z
TLE epoch observation values (Epoch: 2026-06-20T07:40:20.067Z)
Latitude
-0.00001°
Longitude
171.55088°
Altitude
360.651 km
Speed
7.694 km/s
True Right ascension
13h 00m 40s
True Declination
0° 00' 00"
Sunlit
Object was in daylight at epoch
Visualization orbit readout
Latitude
Unknown
Longitude
Unknown
Altitude
Unknown
Speed
Unknown
Apparent Right ascension
Unknown
Apparent Declination
Unknown
Sunlit
N/A
Visualization observer readout
Local Sidereal Time
07:14:02
Azimuth
Unknown
Elevation
Unknown
Doppler factor
Unknown
Orbital elements
Apogee altitude
360.736 km
Perigee altitude
359.221 km
Semi-major axis
6,738.116 km
Eccentricity
0.00011
Inclination
53.1597°
RAAN
195.1705°
Arg. of periapsis
91.5081°
True anomaly
268.59372°
Mean anomaly
268.6066°
Eccentric anomaly
268.60016°
Mean motion
3.92406 °/min
Orbital period
91.74 mins
BSTAR
0.000011367
Loading maneuver chart data...
Computing Atmospheric mass density...
Loading historical data...
Loading historical data...
Loading historical data...
Loading historical data...
Loading historical data...
Loading historical data...
Loading historical data...

Documentation

Showing up to 5 results
|